Location: Kershaw
(34.5481°N, 80.5823°W)
Time: 15:34:08
(UTC+00:00)

Courier 1B Rocket - Pass Details

Date: 03 October 2022
Orbit: 920 x 1202 km, 28.2° (Epoch: 08 December)

Event Time Altitude Azimuth Distance (km) Brightness Sun altitude
Enters shadow 03:32:26 - 266° (W) 3,636 8.3 -51.7°
Rises 03:32:31 0° 266° (W) 3,612 - -51.7°
Reaches altitude 10° 03:35:18 10° 259° (W) 2,640 - -52.1°
Maximum altitude 03:41:10 41° 191° (S) 1,302 - -52.9°
Drops below altitude 10° 03:46:57 10° 123° (ESE) 2,606 - -53.6°
Sets 03:49:42 0° 116° (ESE) 3,560 - -54.0°
